Torna al catalogo

STARLINK-3326

AttivoComunicazioniVLEO
NORAD 50844·PAYLOAD·🇺🇸 United States

Lanciato Jan 6, 2022 da Cape Canaveral Space Force Station

Loading…

Prossimi Passaggi (prossime 24 ore)

TLE

AggiornatoSource: CelesTrak SupGP

Epoca: Sep 15, 2026, 02:36 UTC

1 50844C 22001AT  26258.10881944  .00004054  00000+0  11335-3 0  2580
2 50844  53.1598  34.7808 0000398  28.3228 341.6811 15.36114810    14

Traccia STARLINK-3326 in tempo reale con AllMySat

Download on the App Store